Regional Weather Roundup
Issued by NWS

Home | Current Version | Previous Version | Graphics & Text | Print | Product List | Glossary On
Versions: 1 2 3 4 5 6 7 8 9 10 11 12 13 14 15 16 17 18 19 20 21 22 23 24 25 26 27 28 29 30 31 32 33 34 35 36 37 38 39 40 41 42 43 44 45 46 47 48 49 50
000
ASUS43 KDTX 290701
RWRMI
MICHIGAN HOURLY REGIONAL WEATHER ROUNDUP
NATIONAL WEATHER SERVICE DETROIT/PONTIAC MI
200 AM EST MON DEC 29 2014

NOTE: "FAIR" INDICATES FEW OR NO CLOUDS BELOW 12,000 FEET WITH NO
SIGNIFICANT WEATHER AND/OR OBSTRUCTION TO VISIBILITY.

MIZ047>049-052>055-059>063-066>070-074>076-081>083-290800-
SOUTHEAST LOWER MICHIGAN

CITY           SKY/WX    TMP DP  RH WIND       PRES   REMARKS
ADRIAN         CLEAR     25  20  81 CALM      30.23S
ALMA           CLOUDY    27  17  66 W5        30.23S WCI  22
ANN ARBOR      CLEAR     26  19  74 N5        30.21R WCI  20
BAD AXE        CLOUDY    27  15  59 NW9       30.21R WCI  18
CARO           CLOUDY    28  17  64 W8        30.22R WCI  20
DETROIT CITY   CLEAR     29  19  66 CALM      30.23R
DETROIT        PTCLDY    26  20  77 W6        30.23R WCI  19
FLINT          CLOUDY    29  17  61 NW9       30.23R WCI  20
GROSSE ILE     CLEAR     27  21  80 NW3       30.22R
HILLSDALE      PTCLDY    25  21  83 N3        30.19S
HOWELL         CLOUDY    27  17  65 NW7       30.22S WCI  20

CITY           SKY/WX    TMP DP  RH WIND       PRES   REMARKS
JACKSON        CLOUDY    27  19  72 N5        30.21S WCI  22
LAMBERTVILLE   CLEAR     28  23  80 CALM      30.23S
LANSING        CLOUDY    29  18  63 CALM      30.23R
LAPEER         CLOUDY    28  18  65 NW6       30.21R WCI  22
MASON          CLOUDY    27  17  64 CALM      30.22S
MONROE         CLEAR     27  21  80 CALM      30.22R
MT. CLEMENS    CLEAR     27  19  73 NW5       30.19R WCI  21
PONTIAC        MOCLDY    27  18  69 NW13      30.19R WCI  16
PORT HOPE        N/A     29  16  58 W8        30.18R WCI  21
PORT HURON     CLEAR     27  19  74 NW6       30.21R WCI  20
TRI CITIES     CLOUDY    27  15  61 NW5       30.23R WCI  22
TROY           CLEAR     29  19  66 CALM      30.23R
SAGINAW HB     CLOUDY    28  18  64 NW3       30.23R
$$
MIZ043>046-050>051-056>058-064>065-071>073-077>080-290800-
SOUTHWEST LOWER MICHIGAN

CITY           SKY/WX    TMP DP  RH WIND       PRES   REMARKS
BATTLE CREEK   CLOUDY    30  21  69 NW5       30.22S WCI  25
BENTON HARBOR  CLOUDY    28  21  75 CALM      30.23S
BIG RAPIDS     CLOUDY    25  16  68 N5        30.21R WCI  20
COLDWATER      PTCLDY    26  21  82 MISG      30.21S
FREMONT        CLOUDY    27  16  64 N10       30.24R WCI  17
HOLLAND        CLOUDY    31  20  63 CALM      30.24S
GRAND RAPIDS   CLOUDY    29  19  66 N3        30.23R
IONIA          CLOUDY    29  20  70 CALM      30.22S
KALAMAZOO      CLOUDY    29  22  75 N5        30.22F WCI  24
LUDINGTON      CLOUDY    25  16  68 N10       30.27R WCI  15
MARSHALL       CLOUDY    28  20  72 CALM      30.21F
MOUNT PLEASANT MOCLDY    26  17  66 CALM      30.22R
MUSKEGON       CLOUDY    30  19  63 N10       30.25R WCI  21
SOUTH HAVEN    CLOUDY    32  23  69 E5        30.24R WCI  27
$$
MIZ016>042-290800-
NORTHERN LOWER MICHIGAN

CITY           SKY/WX    TMP DP  RH WIND       PRES   REMARKS
ALPENA         CLEAR     20   9  62 NW7       30.22R WCI  11
BEAVER ISLAND  CLOUDY    20  14  78 W8        30.25R WCI  10
BELLAIRE       MOCLDY    22   9  57 CALM      30.25R
CADILLAC       FLURRIES  21  15  78 NW8       30.19R WCI  11
CHARLEVOIX     FLURRIES  21  11  64 NW10G16   30.27R WCI  10
FRANKFORT      CLOUDY    21  12  68 NW8       30.27R WCI  12
GAYLORD        MOCLDY    17   7  64 NW5       30.18R WCI  10
GRAYLING       CLOUDY    19  12  73 NW8       30.21R WCI   9
HARBOR SPRINGS CLOUDY    20   9  61 NW3       30.23R
HOUGHTON LAKE  CLOUDY    21  14  74 NW8       30.20R WCI  11
MANISTEE       CLOUDY    25  12  58 N13       30.27R WCI  13
OSCODA         CLOUDY    24  17  76 NW9       30.20R WCI  14
PELLSTON       CLOUDY    21  11  65 W5        30.23R WCI  15
ROGERS CITY    PTCLDY    20  10  65 W8        30.22R WCI  10
TRAVERSE CITY  MOCLDY    22  10  60 NW14      30.25R WCI   9
$$
MIZ007>008-015-290800-
EASTERN UPPER MICHIGAN

CITY           SKY/WX    TMP DP  RH WIND       PRES   REMARKS
KINROSS        PTCLDY    12  10  92 W8        30.17S WCI   1
MACKINAC ISLAN PTCLDY    20  14  77 W15       30.20R WCI   6
NEWBERRY       FLURRIES  11  10  93 SW8       30.19R WCI  -1
S. S. MARIE    SNOW      18  16  92 SW7       30.17R VSB 1/2 WCI   9
MUNISING         N/A     19  12  74 W9        30.23S WCI   8
$$
MIZ004>006-011>014-085-290800-
CENTRAL UPPER MICHIGAN

CITY           SKY/WX    TMP DP  RH WIND       PRES   REMARKS
MANISTIQUE     FLURRIES  10   6  85 W8        30.24R WCI  -3
ESCANABA         N/A    N/A N/A N/A MISG        N/A
MENOMINEE      CLEAR     10   7  85 NW3       30.31R
SAWYER-GWINN   LGT SNOW  -2  -5  85 CALM      30.22R
$$
MIZ001>003-009>011-084-290800-
WESTERN UPPER MICHIGAN

CITY           SKY/WX    TMP DP  RH WIND       PRES   REMARKS
IRON MOUNTAIN    N/A     -1  -4  87 NW3       30.24R
HOUGHTON       LGT SNOW  11   5  77 NW12      30.24R WCI  -3
COPPER HARBOR    N/A     16  11  80 N21       30.26R WCI  -1
IRONWOOD       CLOUDY     7   1  78 W8        30.27R WCI  -6
$$

ABBREVIATIONS USED IN REMARKS
   TC - TEMPERATURE IN CELSIUS
  WCI - WIND CHILL INDEX
   HX - HEAT INDEX
  VSB - VISIBILITY




USA.gov is the U.S. government's official web portal to all federal, state and local government web resources and services.